Somerset, KY

8:54 PM EDT on June 27, 2017 (GMT -0400)
Somerset-Pulaski County-Wilson

Weather History for KSME - December, 2013

Change the Weather History Date:

Saturday, December 7, 2013

  Actual Average Record
Temperature  
Mean Temperature 31 °F -  
Max Temperature 32 °F 49 °F 69 °F (1998)
Min Temperature 30 °F 32 °F 17 °F (2002)
Degree Days  
Heating Degree Days 34    
Moisture  
Dew Point 27 °F    
Average Humidity 86    
Maximum Humidity 100    
Minimum Humidity 75    
Precipitation  
Precipitation 0.00 in - - ()
Sea Level Pressure  
Sea Level Pressure 30.45 in    
Wind  
Wind Speed 10 mph (NE)    
Max Wind Speed 14 mph    
Max Gust Speed 20 mph    
Visibility 10 miles    
Events      
Averages and records for this station are not official NWS values.
T = Trace of Precipitation, MM = Missing Value Source: NWS Daily Summary

Daily Weather History Graph

Daily Weather History Graph

Search for Another Location

Airport or City:

Trip Planner

Search our weather history database for the weather conditions in past years. The results will help you decide how hot, cold, wet, or windy it might be!

Date:

Astronomy

Dec. 07, 2013 Rise Set
Actual Time 7:38 AM EST 5:21 PM EST
Civil Twilight 7:09 AM EST 5:50 PM EST
Nautical Twilight 6:37 AM EST 6:22 PM EST
Astronomical Twilight 6:05 AM EST 6:54 PM EST
Moon 11:28 AM EST (12/7) 10:56 PM EST (12/7)
Length of Visible Light 10h 40m
Length of Day
9h 42m
Waxing Crescent, 29% of the Moon is Illuminated
Dec 7
Waxing Crescent
Dec 9
First Quarter
Dec 17
Full
Dec 25
Last Quarter
Jan 1
New

Hourly Weather History & Observations

Time (EST) Temp. Windchill Dew Point Humidity Pressure Visibility Wind Dir Wind Speed Gust Speed Precip Events Conditions
12:15 AM 32.0 °F 23.6 °F 30.2 °F 93% 30.32 in 10.0 mi NNE 10.4 mph 18.4 mph N/A   Overcast
12:35 AM 32.0 °F 24.2 °F 30.2 °F 93% 30.32 in 10.0 mi North 9.2 mph - N/A   Overcast
12:55 AM 32.0 °F 24.2 °F 30.2 °F 93% 30.32 in 10.0 mi NNE 9.2 mph - N/A   Overcast
1:15 AM 32.0 °F 23.6 °F 30.2 °F 93% 30.33 in 10.0 mi NNE 10.4 mph - N/A   Overcast
1:35 AM 32.0 °F 24.2 °F 30.2 °F 93% 30.34 in 10.0 mi NE 9.2 mph - N/A   Overcast
1:55 AM 32.0 °F 24.8 °F 30.2 °F 93% 30.34 in 10.0 mi NNE 8.1 mph - N/A   Overcast
2:15 AM 32.0 °F 24.8 °F 30.2 °F 93% 30.35 in 10.0 mi NNE 8.1 mph - N/A   Overcast
2:35 AM 32.0 °F 24.2 °F 28.4 °F 87% 30.36 in 10.0 mi NNE 9.2 mph - N/A   Overcast
2:55 AM 32.0 °F 24.8 °F 28.4 °F 87% 30.36 in 10.0 mi NNE 8.1 mph - N/A   Overcast
3:15 AM 32.0 °F 24.2 °F 30.2 °F 93% 30.37 in 10.0 mi North 9.2 mph - N/A   Overcast
3:35 AM 30.2 °F 22.6 °F 30.2 °F 100% 30.39 in 10.0 mi NNE 8.1 mph - N/A   Overcast
3:55 AM 30.2 °F 22.6 °F 30.2 °F 100% 30.38 in 10.0 mi NNE 8.1 mph - N/A   Overcast
4:15 AM 30.2 °F 24.3 °F 30.2 °F 100% 30.39 in 10.0 mi NNE 5.8 mph - N/A   Overcast
4:35 AM 30.2 °F 23.4 °F 30.2 °F 100% 30.40 in 10.0 mi North 6.9 mph - N/A   Overcast
4:55 AM 32.0 °F 23.6 °F 28.4 °F 87% 30.40 in 10.0 mi North 10.4 mph - N/A   Overcast
5:15 AM 30.2 °F 20.8 °F 28.4 °F 93% 30.40 in 10.0 mi NNE 11.5 mph - N/A   Overcast
5:35 AM 32.0 °F 24.8 °F 28.4 °F 87% 30.42 in 10.0 mi NNE 8.1 mph - N/A   Overcast
5:55 AM 30.2 °F 21.3 °F 28.4 °F 93% 30.42 in 10.0 mi NNE 10.4 mph - N/A   Overcast
6:15 AM 30.2 °F 21.3 °F 28.4 °F 93% 30.43 in 10.0 mi North 10.4 mph - N/A   Overcast
6:35 AM 30.2 °F 20.8 °F 28.4 °F 93% 30.45 in 10.0 mi NNE 11.5 mph 16.1 mph N/A   Overcast
6:55 AM 30.2 °F 20.8 °F 28.4 °F 93% 30.45 in 10.0 mi NNE 11.5 mph - N/A   Overcast
7:15 AM 30.2 °F 21.3 °F 28.4 °F 93% 30.46 in 10.0 mi North 10.4 mph 16.1 mph N/A   Overcast
7:35 AM 30.2 °F 22.6 °F 28.4 °F 93% 30.47 in 10.0 mi NNE 8.1 mph - N/A   Overcast
7:55 AM 30.2 °F 19.8 °F 28.4 °F 93% 30.47 in 10.0 mi NE 13.8 mph 17.3 mph N/A   Overcast
8:15 AM 30.2 °F 20.8 °F 28.4 °F 93% 30.48 in 10.0 mi NNE 11.5 mph - N/A   Overcast
8:35 AM 30.2 °F 20.8 °F 28.4 °F 93% 30.49 in 10.0 mi NNE 11.5 mph - N/A   Overcast
8:55 AM 30.2 °F 20.8 °F 26.6 °F 86% 30.50 in 10.0 mi NNE 11.5 mph 17.3 mph N/A   Overcast
9:15 AM 30.2 °F 21.3 °F 28.4 °F 93% 30.50 in 10.0 mi NNE 10.4 mph 16.1 mph N/A   Overcast
9:35 AM 30.2 °F 19.8 °F 26.6 °F 86% 30.51 in 10.0 mi NNE 13.8 mph - N/A   Overcast
9:55 AM 30.2 °F 20.8 °F 26.6 °F 86% 30.52 in 10.0 mi NE 11.5 mph - N/A   Overcast
10:15 AM 30.2 °F 20.2 °F 26.6 °F 86% 30.51 in 10.0 mi NE 12.7 mph - N/A   Overcast
10:35 AM 30.2 °F 19.8 °F 26.6 °F 86% 30.51 in 10.0 mi NE 13.8 mph 19.6 mph N/A   Overcast
10:55 AM 30.2 °F 20.2 °F 26.6 °F 86% 30.52 in 10.0 mi NNE 12.7 mph - N/A   Overcast
11:15 AM 32.0 °F 24.2 °F 26.6 °F 80% 30.51 in 10.0 mi NE 9.2 mph - N/A   Overcast
11:35 AM 32.0 °F 24.2 °F 26.6 °F 80% 30.51 in 10.0 mi NE 9.2 mph - N/A   Overcast
11:55 AM 32.0 °F 24.2 °F 26.6 °F 80% 30.50 in 10.0 mi NNE 9.2 mph - N/A   Overcast
12:15 PM 32.0 °F 25.6 °F 26.6 °F 80% 30.50 in 10.0 mi NE 6.9 mph - N/A   Overcast
12:35 PM 32.0 °F 23.6 °F 26.6 °F 80% 30.50 in 10.0 mi NE 10.4 mph - N/A   Overcast
12:55 PM 32.0 °F 24.2 °F 26.6 °F 80% 30.49 in 10.0 mi NE 9.2 mph - N/A   Overcast
1:15 PM 32.0 °F 24.8 °F 26.6 °F 80% 30.49 in 10.0 mi NE 8.1 mph - N/A   Overcast
1:35 PM 32.0 °F 24.2 °F 26.6 °F 80% 30.47 in 10.0 mi NE 9.2 mph - N/A   Overcast
1:55 PM 32.0 °F 23.6 °F 26.6 °F 80% 30.47 in 10.0 mi NNE 10.4 mph - N/A   Overcast
2:15 PM 32.0 °F 23.0 °F 26.6 °F 80% 30.46 in 10.0 mi NE 11.5 mph - N/A   Overcast
2:35 PM 32.0 °F 24.2 °F 26.6 °F 80% 30.46 in 10.0 mi ENE 9.2 mph - N/A   Overcast
2:55 PM 32.0 °F 24.2 °F 26.6 °F 80% 30.46 in 10.0 mi ENE 9.2 mph - N/A   Overcast
3:15 PM 32.0 °F 25.6 °F 26.6 °F 80% 30.46 in 10.0 mi ENE 6.9 mph - N/A   Overcast
3:35 PM 32.0 °F 24.2 °F 26.6 °F 80% 30.47 in 10.0 mi ENE 9.2 mph 16.1 mph N/A   Overcast
3:55 PM 32.0 °F 24.8 °F 26.6 °F 80% 30.46 in 10.0 mi ENE 8.1 mph - N/A   Overcast
4:15 PM 32.0 °F 23.0 °F 26.6 °F 80% 30.47 in 10.0 mi NNE 11.5 mph - N/A   Overcast
4:35 PM 32.0 °F 23.0 °F 26.6 °F 80% 30.47 in 10.0 mi NE 11.5 mph - N/A   Overcast
4:55 PM 32.0 °F 23.0 °F 26.6 °F 80% 30.48 in 10.0 mi NNE 11.5 mph 16.1 mph N/A   Overcast
5:15 PM 32.0 °F 22.1 °F 26.6 °F 80% 30.48 in 10.0 mi NE 13.8 mph - N/A   Overcast
5:35 PM 32.0 °F 24.2 °F 26.6 °F 80% 30.49 in 10.0 mi NE 9.2 mph - N/A   Overcast
5:55 PM 32.0 °F 23.0 °F 26.6 °F 80% 30.48 in 10.0 mi NNE 11.5 mph - N/A   Overcast
6:15 PM 32.0 °F 24.2 °F 26.6 °F 80% 30.49 in 10.0 mi NNE 9.2 mph - N/A   Overcast
6:35 PM 30.2 °F 21.9 °F 26.6 °F 86% 30.48 in 10.0 mi NE 9.2 mph - N/A   Overcast
6:55 PM 30.2 °F 20.8 °F 26.6 °F 86% 30.48 in 10.0 mi NNE 11.5 mph - N/A   Overcast
7:15 PM 30.2 °F 21.3 °F 26.6 °F 86% 30.48 in 10.0 mi NE 10.4 mph - N/A   Overcast
7:35 PM 30.2 °F 20.8 °F 26.6 °F 86% 30.48 in 10.0 mi NE 11.5 mph - N/A   Overcast
7:55 PM 30.2 °F 21.9 °F 26.6 °F 86% 30.49 in 10.0 mi NNE 9.2 mph - N/A   Overcast
8:15 PM 30.2 °F 22.6 °F 26.6 °F 86% 30.48 in 10.0 mi NNE 8.1 mph - N/A   Overcast
8:35 PM 30.2 °F 21.3 °F 26.6 °F 86% 30.47 in 10.0 mi NE 10.4 mph - N/A   Overcast
8:55 PM 30.2 °F 23.4 °F 26.6 °F 86% 30.47 in 10.0 mi NNE 6.9 mph - N/A   Overcast
9:15 PM 30.2 °F 23.4 °F 26.6 °F 86% 30.47 in 10.0 mi NE 6.9 mph - N/A   Overcast
9:35 PM 30.2 °F 21.9 °F 26.6 °F 86% 30.47 in 10.0 mi NE 9.2 mph - N/A   Overcast
9:55 PM 32.0 °F 24.8 °F 26.6 °F 80% 30.45 in 10.0 mi ENE 8.1 mph - N/A   Overcast
10:15 PM 32.0 °F 25.6 °F 24.8 °F 75% 30.44 in 10.0 mi ENE 6.9 mph - N/A   Overcast
10:35 PM 32.0 °F 24.8 °F 24.8 °F 75% 30.45 in 10.0 mi ENE 8.1 mph - N/A   Overcast
10:55 PM 32.0 °F 24.2 °F 26.6 °F 80% 30.45 in 10.0 mi East 9.2 mph - N/A   Overcast
11:15 PM 32.0 °F 24.8 °F 24.8 °F 75% 30.45 in 10.0 mi ENE 8.1 mph - N/A   Overcast
11:35 PM 32.0 °F 23.0 °F 26.6 °F 80% 30.42 in 10.0 mi ENE 11.5 mph - N/A   Overcast
11:55 PM 32.0 °F 23.6 °F 24.8 °F 75% 30.40 in 10.0 mi ENE 10.4 mph 17.3 mph N/A   Overcast